Newcastle Nobbys Observation History
Time Wind Speed Temp Pressure Rel. Hum Rain
03/03:00pm N 8-9 kts 24.7°c n/a 65% 0.0mm
03/02:30pm NNW 8-9 kts 24.6°c n/a 69% 0.0mm
03/02:00pm N 6-8 kts 25.7°c n/a 69% 0.0mm
03/01:30pm N 5-7 kts 24.3°c n/a 67% 0.0mm
03/01:00pm NNW 6-7 kts 24.3°c n/a 71% 0.0mm
03/12:30pm NW 8-13 kts 24.4°c n/a 69% 0.0mm
03/12:00pm NW 11-15 kts 24.5°c n/a 72% 0.0mm
03/11:30am NW 9-12 kts 23.9°c n/a 74% 0.0mm
03/11:00am NW 9-13 kts 24.7°c n/a 76% 0.0mm
03/10:30am NW 10-13 kts 23.5°c n/a 78% 0.0mm
03/10:00am NW 10-13 kts 22.9°c n/a 84% 0.0mm
03/09:30am NNW 8-10 kts 22.0°c n/a 91% 0.0mm
03/09:00am NW 6-8 kts 20.9°c n/a 97% 4.2mm
03/08:30am NW 8-11 kts 20.1°c n/a 100% 4.2mm
03/08:00am NW 8-10 kts 19.1°c n/a 100% 4.2mm
03/07:30am NW 9-12 kts 19.0°c n/a 100% 4.2mm
03/07:00am NW 9-12 kts 19.0°c n/a 100% 4.2mm
03/06:30am NW 10-12 kts 19.0°c n/a 100% 4.2mm
03/06:00am NNW 10-13 kts 19.4°c n/a 100% 4.2mm
03/05:30am NNW 6-8 kts 19.1°c n/a 100% 4.2mm
03/05:00am NNW 7-9 kts 19.3°c n/a 100% 4.2mm
03/04:30am NW 4-5 kts 19.2°c n/a 100% 4.0mm
03/04:00am NW 4-6 kts 19.3°c n/a 100% 4.0mm
03/03:30am WSW 2-5 kts 19.3°c n/a 100% 4.0mm
03/03:00am NW 9-13 kts 19.5°c n/a 100% 4.0mm
03/02:30am NW 5-7 kts 19.5°c n/a 100% 4.0mm
03/02:00am NW 8-12 kts 19.7°c n/a 100% 4.0mm
03/01:30am NW 6-9 kts 19.6°c n/a 100% 4.0mm
03/01:00am NW 10-14 kts 19.7°c n/a 100% 4.0mm
03/12:30am NW 9-12 kts 19.8°c n/a 100% 4.0mm
03/12:00am NW 8-11 kts 20.1°c n/a 100% 4.0mm
Time Wind Speed Temp Pressure Rel. Hum Rain
02/11:30pm NW 7-9 kts 20.2°c n/a 100% 4.0mm
02/11:00pm NW 5-6 kts 20.4°c n/a 100% 4.0mm
02/10:30pm N 6-7 kts 20.3°c n/a 100% 4.0mm
02/10:00pm N 8-11 kts 20.3°c n/a 100% 4.0mm
02/09:30pm NW 9-12 kts 20.4°c n/a 98% 2.8mm
02/09:00pm WNW 6-8 kts 20.7°c n/a 96% 1.8mm
02/08:30pm NW 4-5 kts 20.9°c n/a 94% 1.6mm
02/08:00pm NNW 4-5 kts 21.4°c n/a 91% 1.0mm
02/07:30pm NNE 3-5 kts 21.1°c n/a 91% 1.0mm
02/07:00pm ENE 2-3 kts 21.3°c n/a 89% 0.8mm
02/06:30pm N 6-8 kts 21.3°c n/a 87% 0.2mm
02/06:00pm NNW 5-8 kts 21.9°c n/a 83% 0.0mm
02/05:30pm NW 8-11 kts 22.6°c n/a 78% 0.0mm
02/05:00pm NW 13-18 kts 24.2°c n/a 69% 0.0mm
02/04:30pm WNW 9-14 kts 24.7°c n/a 69% 0.0mm
02/04:00pm ENE 2-4 kts 23.6°c n/a 86% 0.0mm
02/03:30pm ENE 7-8 kts 23.2°c n/a 89% 0.0mm
02/03:00pm ENE 7-10 kts 23.1°c n/a 88% 0.0mm
02/02:30pm E 5-7 kts 23.5°c n/a 84% 0.0mm
02/02:00pm E 6-8 kts 24.1°c n/a 77% 0.0mm
02/01:30pm ENE 6-9 kts 24.5°c n/a 72% 0.0mm
02/01:00pm ENE 7-9 kts 24.4°c n/a 72% 0.0mm
02/12:30pm E 7-8 kts 23.9°c n/a 72% 0.0mm
02/12:00pm E 3-5 kts 24.9°c n/a 70% 0.0mm
02/11:30am NE 4-7 kts 24.8°c n/a 69% 0.0mm
02/11:00am NNW 3-4 kts 24.0°c n/a 75% 0.0mm
02/10:30am NNW 3 kts 22.7°c n/a 80% 0.0mm
02/10:00am NNE 4-5 kts 21.9°c n/a 79% 0.0mm
02/09:30am NNE 5-6 kts 22.2°c n/a 77% 0.0mm
02/09:00am N 6-8 kts 21.6°c n/a 80% 0.0mm
02/08:30am N 5-7 kts 21.2°c n/a 82% 0.0mm
02/08:00am NE 7-11 kts 21.2°c n/a 85% 0.0mm
02/07:30am NE 11-14 kts 20.7°c n/a 87% 0.0mm
02/07:00am NE 11-14 kts 20.6°c n/a 88% 0.0mm
02/06:30am NE 11-13 kts 20.7°c n/a 88% 0.0mm
02/06:00am NE 11-15 kts 20.9°c n/a 89% 0.0mm
02/05:30am NE 11-14 kts 20.9°c n/a 90% 0.0mm
02/05:00am NE 11-13 kts 21.0°c n/a 90% 0.0mm
02/04:30am NE 11-14 kts 21.0°c n/a 89% 0.0mm
02/04:00am NE 11-14 kts 21.0°c n/a 91% 0.0mm
02/03:30am NE 10-13 kts 21.1°c n/a 91% 0.0mm
02/03:00am NE 10-13 kts 21.1°c n/a 92% 0.0mm
02/02:30am NE 9-12 kts 21.2°c n/a 92% 0.0mm
02/02:00am NE 8-12 kts 21.5°c n/a 90% 0.0mm
02/01:30am NE 7-11 kts 21.4°c n/a 91% 0.0mm
02/01:00am NE 7-9 kts 21.3°c n/a 92% 0.0mm
02/12:30am NE 8-11 kts 21.5°c n/a 91% 0.0mm
02/12:00am NE 7-11 kts 21.7°c n/a 91% 0.0mm
Time Wind Speed Temp Pressure Rel. Hum Rain
01/11:30pm NE 9-13 kts 21.7°c n/a 90% 0.0mm
01/11:00pm NE 9-13 kts 21.8°c n/a 90% 0.0mm
01/10:30pm NE 8-11 kts 21.9°c n/a 91% 0.0mm
01/10:00pm ENE 7-11 kts 22.0°c n/a 90% 0.0mm
01/09:30pm NE 8-11 kts 22.1°c n/a 90% 0.0mm
01/09:00pm NE 8-11 kts 22.1°c n/a 90% 0.0mm
01/08:30pm NE 8-11 kts 22.2°c n/a 89% 0.0mm
01/08:00pm ENE 10-13 kts 22.2°c n/a 90% 0.0mm
01/07:30pm ENE 13-16 kts 22.3°c n/a 90% 0.0mm
01/07:00pm ENE 10-13 kts 22.4°c n/a 90% 0.0mm
01/06:30pm ENE 10-14 kts 22.5°c n/a 90% 0.0mm
01/06:00pm E 11-15 kts 22.7°c n/a 89% 0.0mm
01/05:30pm E 10-13 kts 22.9°c n/a 90% 0.0mm
01/05:00pm E 12-13 kts 22.8°c n/a 90% 0.0mm
01/04:30pm E 12-13 kts 23.0°c n/a 89% 0.0mm
01/04:00pm E 11-13 kts 22.9°c n/a 90% 0.0mm
01/03:30pm ESE 11-13 kts 22.9°c n/a 89% 0.0mm
01/03:00pm ESE 10-12 kts 23.1°c n/a 88% 0.0mm
01/02:30pm ESE 8-10 kts 23.3°c n/a 87% 0.0mm
01/02:00pm ESE 10-11 kts 23.3°c n/a 87% 0.0mm
01/01:30pm E 8-9 kts 23.7°c n/a 84% 0.0mm
01/01:00pm E 6-8 kts 23.9°c n/a 81% 0.0mm
01/12:30pm E 5-8 kts 24.8°c n/a 77% 0.0mm
01/12:00pm NE 4-6 kts 25.3°c n/a 77% 0.0mm
01/11:30am NNE 2-3 kts 25.4°c n/a 80% 0.0mm
01/11:00am NNE 2 kts 25.1°c n/a 83% 0.0mm
01/10:30am CALM 0-1 kts 24.3°c n/a 89% 0.0mm
01/10:00am NNW 3-4 kts 22.6°c n/a 96% 0.0mm
01/09:30am NW 6-8 kts 21.2°c n/a 98% 0.0mm
01/09:00am NNW 5-6 kts 20.8°c n/a 100% 0.0mm
01/08:30am NNW 3-4 kts 20.6°c n/a 100% 0.0mm
01/08:00am CALM 0 kts 20.6°c n/a 100% 0.0mm
01/07:30am WNW 2-4 kts 19.9°c n/a 100% 0.0mm
01/07:00am CALM 0-1 kts 20.0°c n/a 100% 0.0mm
01/06:30am CALM 0-1 kts 20.3°c n/a 100% 0.0mm
01/06:00am S 1-3 kts 20.4°c n/a 100% 0.0mm
01/05:30am W 2-3 kts 19.8°c n/a 100% 0.0mm
01/05:00am WNW 2-3 kts 19.9°c n/a 100% 0.0mm
01/04:30am CALM 0-2 kts 20.2°c n/a 100% 0.0mm
01/04:00am WNW 1 kts 20.4°c n/a 99% 0.0mm
01/03:30am WNW 1-2 kts 20.4°c n/a 99% 0.0mm
01/03:00am W 3-5 kts 21.0°c n/a 99% 0.0mm
01/02:30am SW 4-6 kts 21.0°c n/a 99% 0.0mm
01/02:00am SSW 5-6 kts 21.3°c n/a 98% 0.0mm
01/01:30am SSW 4-5 kts 21.4°c n/a 97% 0.0mm
01/01:00am SSW 5-6 kts 21.4°c n/a 97% 0.0mm
01/12:30am SSW 5-6 kts 21.4°c n/a 97% 0.0mm
01/12:00am SSW 4-5 kts 21.6°c n/a 97% 0.0mm